Weather History for EGJJ - January, 2013

Change the Weather History Date:

Thursday, January 24, 2013

  Actual Average Record
Temperature  
Mean Temperature 38 °F -  
Max Temperature 42 °F 46 °F 53 °F (1999)
Min Temperature 35 °F 39 °F 30 °F (2006)
Degree Days  
Heating Degree Days 26    
Moisture  
Dew Point 36 °F    
Average Humidity 87    
Maximum Humidity 100    
Minimum Humidity 72    
Precipitation  
Precipitation 0.00 in - - ()
Sea Level Pressure  
Sea Level Pressure 29.95 in    
Wind  
Wind Speed 7 mph ()    
Max Wind Speed 14 mph    
Max Gust Speed -    
Visibility 6.2 miles    
Events Rain    
Averages and records for this station are not official NWS values.
T = Trace of Precipitation, MM = Missing Value Source: Averaged Metar Reports

Daily Weather History Graph

Daily Weather History Graph

Search for Another Location

Airport or City:

Trip Planner

Search our weather history database for the weather conditions in past years. The results will help you decide how hot, cold, wet, or windy it might be!

Date:

Astronomy

Jan. 24, 2013 Rise Set
Actual Time 7:49 AM GMT 4:52 PM GMT
Civil Twilight 7:14 AM GMT 5:27 PM GMT
Nautical Twilight 6:35 AM GMT 6:06 PM GMT
Astronomical Twilight 5:58 AM GMT 6:44 PM GMT
Moon 2:38 PM GMT (1/24) 5:40 AM GMT (1/24)
Length of Visible Light 10h 12m
Length of Day
9h 02m
Waxing Gibbous, 93% of the Moon is Illuminated
Jan 24
Waxing Gibbous
Jan 27
Full
Feb 3
Last Quarter
Feb 10
New
Feb 17
First Quarter

Hourly Weather History & Observations

Time (GMT) Temp. Windchill Dew Point Humidity Pressure Visibility Wind Dir Wind Speed Gust Speed Precip Events Conditions
12:00 AM 40 °F - 39 °F 95% 29.69 in 4 mi SE 6.9 mph - -   Mist
3:00 AM 38 °F - 37 °F 96% 29.74 in 4 mi East 9.2 mph - -   Mist
3:50 AM 39.2 °F 33.6 °F 39.2 °F 100% 29.74 in 3.7 mi ENE 8.1 mph - N/A   Mostly Cloudy
4:20 AM 39.2 °F 34.2 °F 37.4 °F 93% 29.77 in 4.3 mi ENE 6.9 mph - N/A   Mostly Cloudy
4:50 AM 39.2 °F 35.0 °F 39.2 °F 100% 29.77 in 3.7 mi ENE 5.8 mph - N/A Rain Light Rain Showers
5:20 AM 39.2 °F 35.9 °F 37.4 °F 93% 29.80 in 5.0 mi East 4.6 mph - N/A   Scattered Clouds
5:50 AM 37.4 °F 32.1 °F 37.4 °F 100% 29.80 in 5.0 mi ENE 6.9 mph - N/A   Partly Cloudy
6:00 AM 38 °F - 37 °F 97% 29.82 in 5 mi ENE 8.1 mph - - Rain Light Rain Showers
6:20 AM 37.4 °F 32.1 °F 35.6 °F 93% 29.80 in 6.2 mi ENE 6.9 mph - N/A   Partly Cloudy
6:50 AM 35.6 °F 29.9 °F 35.6 °F 100% 29.83 in - ENE 6.9 mph - N/A   Clear
7:20 AM 37.4 °F 32.8 °F 35.6 °F 93% 29.86 in 6.2 mi ENE 5.8 mph - N/A   Partly Cloudy
7:50 AM 37.4 °F 32.1 °F 37.4 °F 100% 29.86 in 5.0 mi ENE 6.9 mph - N/A   Scattered Clouds
8:20 AM 37.4 °F 32.1 °F 35.6 °F 93% 29.89 in 6.2 mi ENE 6.9 mph - N/A   Mostly Cloudy
8:50 AM 39.2 °F 34.2 °F 37.4 °F 93% 29.92 in 6.2 mi NE 6.9 mph - N/A   Mostly Cloudy
9:00 AM 39 °F - 37 °F 92% 29.92 in 9 mi NE 5.8 mph - -   Mostly Cloudy
9:20 AM 39.2 °F 35.9 °F 37.4 °F 93% 29.92 in 6.2 mi ENE 4.6 mph - N/A   Mostly Cloudy
9:50 AM 41.0 °F 38.0 °F 39.2 °F 93% 29.92 in 6.2 mi NNE 4.6 mph - N/A   Mostly Cloudy
10:20 AM 42.8 °F 37.0 °F 37.4 °F 81% 29.95 in 6.2 mi ENE 10.4 mph - N/A   Partly Cloudy
10:50 AM 42.8 °F 37.0 °F 37.4 °F 81% 29.95 in 6.2 mi East 10.4 mph - N/A   Scattered Clouds
11:20 AM 41.0 °F 33.5 °F 37.4 °F 87% 29.95 in 6.2 mi East 13.8 mph - N/A   Mostly Cloudy
11:50 AM 41.0 °F 34.3 °F 37.4 °F 87% 29.98 in 6.2 mi ENE 11.5 mph - N/A   Mostly Cloudy
12:00 PM 41 °F - 37 °F 81% 29.99 in 6 mi ENE 9.2 mph - -   Partly Cloudy
12:20 PM 41.0 °F 34.7 °F 37.4 °F 87% 29.98 in 6.2 mi ENE 10.4 mph - N/A   Mostly Cloudy
12:50 PM 41.0 °F 35.2 °F 37.4 °F 87% 29.98 in 6.2 mi East 9.2 mph - N/A   Mostly Cloudy
1:20 PM 41.0 °F 37.1 °F 35.6 °F 81% 29.98 in 6.2 mi ENE 5.8 mph - N/A   Mostly Cloudy
1:50 PM 41.0 °F 34.7 °F 35.6 °F 81% 29.98 in 6.2 mi ENE 10.4 mph - N/A   Mostly Cloudy
2:20 PM 41.0 °F 34.7 °F 35.6 °F 81% 29.98 in 6.2 mi East 10.4 mph - N/A   Mostly Cloudy
2:50 PM 41.0 °F 36.4 °F 35.6 °F 81% 30.01 in 6.2 mi East 6.9 mph - N/A   Mostly Cloudy
3:00 PM 41 °F - 35 °F 72% 30.03 in 12 mi ENE 4.6 mph - -   Mostly Cloudy
3:20 PM 41.0 °F 37.1 °F 33.8 °F 76% 30.01 in 6.2 mi NE 5.8 mph - N/A   Mostly Cloudy
3:50 PM 41.0 °F 36.4 °F 33.8 °F 76% 30.04 in 6.2 mi ENE 6.9 mph - N/A   Mostly Cloudy
4:20 PM 39.2 °F 35.0 °F 33.8 °F 81% 30.04 in 6.2 mi ENE 5.8 mph - N/A   Mostly Cloudy
4:50 PM 39.2 °F 35.0 °F 33.8 °F 81% 30.04 in 6.2 mi ENE 5.8 mph - N/A   Mostly Cloudy
5:20 PM 39.2 °F 35.9 °F 33.8 °F 81% 30.06 in 6.2 mi ENE 4.6 mph - N/A   Scattered Clouds
5:50 PM 39.2 °F 34.2 °F 33.8 °F 81% 30.06 in 6.2 mi East 6.9 mph - N/A   Mostly Cloudy
6:00 PM 38 °F - 34 °F 80% 30.09 in 12 mi East 4.6 mph - -   Mostly Cloudy
6:20 PM 37.4 °F 30.8 °F 33.8 °F 87% 30.06 in 6.2 mi East 9.2 mph - N/A   Mostly Cloudy
6:50 PM 37.4 °F 29.8 °F 33.8 °F 87% 30.06 in 6.2 mi East 11.5 mph - N/A   Mostly Cloudy
7:20 PM 37.4 °F 30.3 °F 33.8 °F 87% 30.09 in 6.2 mi East 10.4 mph - N/A   Mostly Cloudy
7:50 PM 37.4 °F 32.1 °F 32.0 °F 81% 30.09 in 6.2 mi ESE 6.9 mph - N/A   Mostly Cloudy
8:20 PM 37.4 °F 30.8 °F 32.0 °F 81% 30.09 in 6.2 mi East 9.2 mph - N/A   Overcast
8:50 PM 37.4 °F 31.4 °F 32.0 °F 81% 30.09 in 6.2 mi ESE 8.1 mph - N/A   Overcast
9:00 PM 37 °F - 33 °F 79% 30.11 in 9 mi ESE 8.1 mph - -   Overcast